Home   Weather   Istanbul   Past weeks
Flag for Turkey

Past Weather in Istanbul, Turkey — Yesterday and Last 2 Weeks

Now
57 °F

Clear.


Feels Like: 57 °F
Forecast: 57 / 47 °F
Wind: 3 mph from North

Location: Istanbul Ataturk Airport

Current Time: Mar 19, 2019 at 9:47:06 am

Latest Report: Mar 19, 2019 at 8:50 am


Visibility: 4 mi

Pressure: 30.04 "Hg

Humidity: 72%

Dew Point: 48 °F

Location of IstanbulLocation

Past Weather in Istanbul — Graph

°F

Istanbul Temperature Yesterday

Maximum temperature yesterday: 70 °F (at 4:20 pm)
Minimum temperature yesterday: 50 °F (at 3:20 am)
Average temperature yesterday: 59 °F

High & Low Weather Summary for the Past Weeks

 TemperatureHumidityPressure
High70 °F (Mar 11, 5:20 pm)94% (Mar 9, 5:20 am)30.30 "Hg (Mar 9, 5:20 am)
Low36 °F (Mar 4, 8:20 am)16% (Mar 7, 3:50 pm)29.74 "Hg (Mar 12, 6:50 am)
Average52 °F67%30.00 "Hg
* Reported Mar 4 8:20 am — Mar 19 8:20 am, Istanbul. Weather by CustomWeather, © 2019

Note: Actual official high and low records may vary slightly from our data, if they occured in-between our weather recording intervals... More about our weather records

Advertising

Istanbul Weather History for the Previous 24 Hours

Scroll right to see more
 ConditionsComfort  
Time TempWeatherWind HumidityBarometerVisibility
8:20 am
Tue, Mar 19
55 °FPassing clouds.3 mph72%30.04 "HgN/A
7:50 am52 °FClear.2 mph82%30.04 "Hg4 mi
7:20 am46 °FClear.3 mph93%30.04 "Hg4 mi
6:50 am48 °FClear.2 mph94%30.04 "Hg4 mi
6:20 am52 °FClear.2 mph82%30.01 "Hg10 mi
5:50 am50 °FClear.No wind82%30.01 "Hg10 mi
5:20 am48 °FClear.2 mph87%30.01 "Hg10 mi
4:50 am50 °FClear.2 mph88%30.01 "Hg10 mi
4:20 am50 °FClear.1 mph88%30.01 "Hg10 mi
3:50 am52 °FClear.2 mph77%30.01 "Hg10 mi
3:20 am54 °FPassing clouds.3 mph72%30.01 "HgN/A
2:50 am55 °FPassing clouds.5 mph67%30.01 "HgN/A
2:20 am59 °FPassing clouds.3 mph59%30.01 "HgN/A
1:50 am55 °FClear.2 mph63%30.01 "Hg10 mi
1:20 am55 °FPassing clouds.3 mph67%30.01 "HgN/A
12:50 am55 °FPassing clouds.3 mph67%30.01 "HgN/A
12:20 am55 °FClear.6 mph72%30.01 "Hg10 mi
11:50 pm
Mon, Mar 18
55 °FClear.3 mph67%30.01 "Hg10 mi
11:20 pm55 °FClear.6 mph67%30.01 "Hg10 mi
10:50 pm55 °FClear.7 mph63%30.01 "Hg10 mi
10:20 pm64 °FClear.6 mph49%30.01 "Hg10 mi
9:50 pm61 °FPassing clouds.7 mph55%30.01 "HgN/A
9:20 pm63 °FClear.6 mph49%30.01 "Hg10 mi
8:50 pm64 °FPassing clouds.6 mph46%30.01 "HgN/A
8:20 pm64 °FClear.5 mph49%30.01 "Hg10 mi
7:50 pm63 °FPassing clouds.3 mph49%30.01 "HgN/A
7:20 pm66 °FPassing clouds.3 mph40%29.98 "HgN/A
6:50 pm68 °FSunny.2 mph40%29.98 "Hg10 mi
6:20 pm70 °FSunny.2 mph35%29.98 "Hg10 mi
5:50 pm70 °FSunny.2 mph38%29.98 "Hg10 mi
5:20 pm70 °FPassing clouds.3 mph38%29.98 "HgN/A
4:50 pm70 °FPassing clouds.5 mph38%29.98 "HgN/A
4:20 pm70 °FPassing clouds.3 mph40%30.01 "HgN/A
3:50 pm68 °FPassing clouds.6 mph40%30.01 "HgN/A
2:50 pm68 °FPassing clouds.5 mph43%30.04 "HgN/A
2:20 pm66 °FPassing clouds.3 mph46%30.04 "HgN/A
1:50 pm64 °FPassing clouds.5 mph49%30.04 "HgN/A
1:20 pm63 °FPassing clouds.6 mph49%30.04 "HgN/A
12:50 pm64 °FPassing clouds.7 mph46%30.04 "HgN/A
12:20 pm64 °FPassing clouds.6 mph49%30.04 "HgN/A
11:50 am61 °FPassing clouds.5 mph55%30.04 "HgN/A
11:20 am59 °FPassing clouds.6 mph63%30.07 "HgN/A
10:50 am59 °FPassing clouds.7 mph63%30.07 "HgN/A
10:20 am57 °FSunny.7 mph67%30.07 "Hg10 mi
9:50 am57 °FSunny.7 mph67%30.07 "Hg10 mi
9:20 am55 °FSunny.8 mph67%30.07 "Hg10 mi
Weather by CustomWeather, © 2019

See weather overview